Location: Archemont
(49.1579°N, 1.7598°E)
Time: 11:22:30
(UTC+00:00)

Cosmos 2278 Rocket - Pass Details

Date: 03 February 2023
Orbit: 841 x 845 km, 71.0° (Epoch: 29 March)

Event Time Altitude Azimuth Distance (km) Brightness Sun altitude
Rises 18:10:21 0° 335° (NNW) 3,417 5.6 -12.9°
Reaches altitude 10° 18:13:36 10° 353° (N) 2,478 4.6 -13.5°
Maximum altitude 18:17:32 19° 37° (NE) 1,927 3.7 -14.1°
Enters shadow 18:18:53 17° 55° (NE) 1,999 3.6 -14.3°
